HAWK-2C

Last updated on Fri Sep 11 2026 00:03:35 GMT+0000 (Coordinated Universal Time)

1 47502U 21006CT 26252.69491608 .00004999 00000+0 14680-3 0 9999 2 47502 97.2210 295.3391 0004924 251.9328 108.1380 15.35578765312461
UTC large
Height (km)
Speed (km/s)
/
Latitude / Longitude
Inclination (degrees)
Orbital Period (minutes)
Azimuth
Elevation
Range (km)
Doppler Factor

Next 0 passes for location: London (51.5072 / 0.1276)

No passes found over London.
HAWK-2C